GFSFLT1_sfc_rhum_000.txt.gz
RH
18 22 20 24 29 32 38 39 43 47 54 67 65 65 72 74 72 58 56 58 46 44 41 40 49 66 58 56 54 55 56 47 46
16 20 21 22 26 30 34 39 44 51 59 62 61 59 68 72 71 70 56 59 60 49 55 40 53 59 58 52 55 54 57 45 52
16 19 21 19 22 27 30 33 37 44 50 58 57 56 60 61 64 67 65 62 68 61 56 59 56 57 52 53 54 55 61 50 52
14 17 22 21 20 22 27 29 32 38 45 52 54 54 59 60 57 58 64 63 74 69 68 64 61 61 55 54 55 56 61 60 51
8 15 20 22 21 22 25 30 29 32 37 42 47 51 60 58 57 58 61 70 73 75 74 66 70 61 65 59 53 55 59 57 47
13 20 22 24 22 26 27 28 32 30 34 34 36 46 49 54 56 59 64 83 86 77 68 78 74 74 76 74 67 57 58 59 56
16 24 27 28 27 31 32 33 39 40 33 32 34 36 45 54 57 60 68 76 87 74 69 72 85 81 80 68 61 58 57 55 56
16 26 29 32 31 39 45 44 44 43 38 39 37 42 43 52 60 70 75 76 75 74 74 77 74 71 67 66 64 57 62 56 53
16 26 28 31 34 37 42 43 45 45 46 43 45 49 50 54 75 76 85 80 76 75 75 68 68 66 68 66 58 65 75 64 53
17 23 27 31 34 35 40 41 46 47 49 48 51 58 57 63 79 80 85 78 75 73 70 73 63 62 65 67 66 80 81 83 53
16 21 25 30 27 33 40 35 36 42 47 55 58 64 64 70 82 80 84 81 77 74 63 67 65 68 68 65 58 85 92 89 64
21 22 25 29 28 36 43 36 41 45 48 54 59 65 68 76 78 80 81 80 80 71 67 65 64 66 68 69 66 94 91 91 56
21 24 27 31 31 37 38 38 38 46 48 55 61 64 67 76 76 79 81 78 79 78 73 69 61 66 67 68 72 93 92 86 47
28 32 36 36 36 37 42 40 40 46 49 53 54 60 69 76 76 78 82 82 81 75 74 78 72 70 71 78 82 70 98 98 70
38 37 33 30 38 45 44 43 44 52 56 57 62 66 79 84 80 75 69 86 86 86 84 80 76 88 82 70 64 95 98 100 95
32 31 30 29 38 49 52 53 52 59 71 70 71 84 89 87 85 80 78 86 86 79 76 64 84 83 67 53 56 72 99 100 100
40 40 39 36 41 49 61 66 63 70 74 74 76 86 89 91 87 85 82 79 76 76 75 69 84 70 70 56 72 56 63 76 74
47 49 46 43 46 54 65 68 71 68 73 75 78 87 86 83 81 82 80 81 79 63 78 72 49 49 56 82 71 49 67 63 47
62 57 56 57 58 64 68 70 72 72 79 79 78 80 71 69 68 67 71 70 73 97 90 100 100 100 84 65 86 92 89 90 95
64 57 57 60 58 62 66 68 68 68 69 69 71 64 66 56 57 47 50 53 52 52 73 94 95 93 92 89 90 88 88 90 95

GFSFLT1_sfc_rhum_003.txt.gz
RH
10 16 17 18 24 28 34 36 41 45 55 70 70 66 71 72 72 52 49 57 45 42 40 40 53 58 59 60 52 54 58 48 48
8 14 17 19 20 25 31 34 42 47 55 64 64 58 69 72 71 69 53 61 62 45 56 40 46 54 62 60 54 56 60 49 58
9 10 17 17 18 22 27 29 34 41 48 59 58 57 61 61 65 68 65 62 64 60 56 56 58 58 59 58 58 61 67 56 60
8 11 15 17 17 19 23 25 29 35 42 52 56 55 56 59 59 60 64 62 62 64 61 66 64 68 63 59 58 58 64 62 54
8 11 14 16 16 17 20 25 25 29 33 37 46 51 58 59 60 60 61 65 64 70 71 68 68 68 67 57 59 70 64 58 51
9 11 12 16 15 18 19 22 26 23 29 28 32 46 48 54 57 60 63 67 67 75 73 73 62 66 68 63 61 61 61 60 58
10 10 18 16 17 20 20 24 30 30 26 24 28 35 40 54 59 59 59 68 73 73 76 74 67 66 65 63 59 58 56 57 58
10 10 16 21 21 26 30 30 34 34 28 31 30 40 40 52 62 62 64 71 79 78 75 72 66 65 62 58 51 46 58 56 57
10 10 10 20 25 26 33 33 36 37 37 34 37 47 45 54 66 70 71 80 83 80 74 68 63 63 60 60 43 65 76 65 55
11 12 11 16 23 27 30 31 38 38 42 39 45 52 52 58 70 77 85 79 83 82 78 70 66 64 64 61 59 79 81 80 55
11 12 12 13 18 26 32 28 29 35 39 51 54 60 59 63 76 82 87 84 84 81 74 72 66 66 63 61 57 86 86 87 73
10 10 10 13 20 24 37 34 39 43 45 52 56 60 64 66 76 82 85 83 79 76 76 72 70 69 76 68 67 87 91 84 72
15 15 12 17 23 26 34 38 36 45 45 52 57 60 63 69 77 82 80 80 82 80 75 70 58 61 75 71 71 93 93 86 75
20 17 22 27 28 38 42 39 37 50 49 52 51 54 59 68 74 81 77 80 83 83 80 81 82 77 68 73 70 74 95 95 67
24 24 28 28 36 40 40 41 46 54 58 56 59 62 65 73 77 74 75 84 82 82 86 79 77 82 73 62 70 86 94 98 94
34 34 34 31 35 44 43 48 51 58 65 64 67 70 78 81 82 83 82 78 81 83 77 64 67 64 60 56 60 88 98 100 100
29 30 35 34 39 47 54 52 51 59 63 65 70 87 87 86 86 82 83 71 73 76 69 65 57 58 70 68 77 96 91 72 74
38 38 37 40 47 53 58 60 65 61 66 67 80 88 87 89 80 80 79 72 74 78 76 94 57 53 70 73 51 53 66 80 65
47 47 48 52 53 57 62 63 66 67 69 69 79 81 77 74 68 74 86 73 67 97 96 99 99 96 77 61 86 92 90 90 88
60 47 46 48 50 53 58 61 65 73 74 71 77 72 74 65 59 61 64 63 57 58 76 92 91 93 94 89 89 90 89 89 93

GFSFLT1_sfc_rhum_006.txt.gz
RH
15 17 16 19 25 30 38 40 46 51 66 76 77 75 81 81 78 68 68 70 62 64 62 62 73 74 78 78 76 75 80 77 76
11 16 18 19 24 28 36 40 46 53 66 74 75 73 78 82 80 76 69 72 73 65 71 62 72 71 77 75 75 77 82 74 78
10 11 18 18 20 27 32 35 40 48 56 69 73 72 73 73 76 76 72 72 76 70 68 69 71 73 72 75 76 76 81 76 76
10 11 17 16 20 22 30 33 38 43 50 63 69 70 71 72 72 73 74 73 74 72 72 72 75 74 75 77 74 76 81 79 75
11 12 14 16 19 21 27 32 35 40 45 51 60 66 70 71 73 74 73 74 73 73 77 74 74 75 77 76 71 76 78 75 65
15 16 19 18 17 23 25 29 34 36 41 43 51 61 62 66 69 72 74 76 72 75 75 76 74 75 79 76 71 76 75 75 74
14 20 27 20 20 24 25 30 37 40 39 38 44 52 56 64 66 68 68 73 76 72 75 77 78 77 77 74 70 72 71 73 74
16 18 24 25 25 32 34 37 40 39 36 40 39 52 55 62 67 68 71 73 76 75 77 79 80 79 78 75 66 59 72 72 73
17 18 16 25 28 33 38 37 40 39 38 39 41 50 53 60 67 72 73 75 78 80 82 84 83 78 77 79 58 67 75 74 70
17 16 17 22 29 31 32 34 39 39 40 40 44 54 55 60 68 74 75 75 78 83 85 85 84 79 77 76 72 80 80 80 69
18 16 16 18 12 28 36 27 27 36 38 48 50 62 59 62 69 75 76 78 81 86 86 86 83 82 79 73 72 83 86 82 78
13 13 18 18 12 17 39 34 36 42 42 45 56 56 64 64 71 77 80 83 88 86 88 86 85 82 77 78 76 86 92 89 83
9 9 11 21 21 22 38 41 34 43 46 49 51 58 63 70 78 83 88 87 89 87 84 84 77 76 80 84 80 91 91 87 68
28 15 18 23 33 38 46 45 40 51 51 56 53 61 65 74 83 87 88 89 86 85 85 86 85 83 81 81 82 92 92 91 76
30 28 23 27 44 51 50 49 54 62 67 66 68 71 73 82 87 79 81 88 90 89 88 88 88 85 84 91 88 97 94 94 91
31 27 33 31 44 56 56 63 63 69 76 72 73 75 81 84 86 82 85 89 90 86 87 77 79 78 93 93 89 94 92 97 99
39 40 45 45 50 58 66 67 66 72 73 75 77 84 86 86 85 87 87 87 82 75 76 75 77 88 95 92 95 83 93 87 97
52 56 60 61 62 66 69 74 74 71 76 80 84 85 85 88 88 87 90 84 85 75 89 91 82 92 92 75 85 79 82 81 74
66 67 66 70 67 71 76 74 75 76 82 83 83 83 83 86 92 90 85 77 76 98 97 96 95 94 83 94 97 98 94 90 88
82 65 59 62 66 68 73 75 76 75 82 82 85 84 93 87 92 87 78 74 72 74 83 92 94 96 94 84 89 91 90 90 89

GFSFLT1_sfc_rhum_009.txt.gz
RH
20 22 20 24 33 35 40 43 56 63 74 76 79 81 82 75 86 66 71 83 83 74 74 75 81 78 81 83 76 88 91 89 88
21 19 22 22 28 33 40 43 56 59 75 76 77 80 81 80 78 75 76 86 86 80 67 73 76 85 84 82 82 87 89 90 85
20 21 21 22 26 33 40 41 49 56 66 75 76 74 81 80 79 71 74 87 82 81 76 79 73 85 85 88 79 85 89 86 89
19 21 20 22 25 30 38 40 46 54 65 73 76 76 77 78 80 77 72 86 80 79 78 82 78 77 88 82 81 83 89 85 82
16 23 20 21 23 28 39 42 43 51 66 70 72 73 75 78 79 79 78 72 80 83 74 76 76 80 76 83 79 83 85 82 77
19 23 25 23 23 31 37 40 42 47 55 68 69 72 74 77 76 80 80 75 81 84 70 80 78 73 79 81 81 81 83 77 83
18 21 31 27 26 32 34 39 42 43 50 58 66 71 73 74 74 75 76 76 74 85 81 84 77 76 78 82 79 77 81 83 88
22 22 35 33 28 30 35 38 42 44 45 49 58 66 70 71 71 72 75 77 80 75 87 87 83 88 88 87 78 72 85 81 91
15 26 34 34 35 30 33 37 43 43 46 47 49 63 66 66 70 72 76 79 82 86 80 91 92 89 87 93 72 80 84 82 83
15 22 28 30 36 49 31 36 38 43 45 44 49 56 64 65 66 74 75 79 82 90 85 94 96 91 86 93 89 83 84 84 81
16 16 24 32 30 41 53 35 37 38 42 47 50 55 63 63 69 70 77 79 83 88 88 94 94 87 90 92 91 86 86 82 84
14 14 14 24 31 36 42 39 38 38 42 48 48 53 57 62 66 72 77 79 85 93 94 93 88 93 93 93 92 92 90 90 90
28 23 21 18 26 32 48 45 37 40 42 45 48 46 54 60 62 70 83 83 95 97 97 97 96 95 94 90 87 91 90 88 81
42 42 34 25 29 35 49 53 39 42 41 42 45 45 71 77 80 85 94 97 98 97 96 96 96 94 88 83 80 91 89 89 76
44 57 36 62 52 57 64 62 49 52 45 52 73 71 90 94 96 95 96 96 94 94 95 95 93 92 82 91 94 96 93 91 88
46 58 66 68 78 88 89 77 62 78 90 80 79 94 96 96 96 95 97 97 98 97 96 92 87 84 97 98 98 98 97 93 94
74 72 75 75 77 84 88 86 83 86 84 82 88 97 96 91 93 94 95 96 91 92 98 96 98 98 99 99 98 99 99 100 99
92 90 87 81 79 88 93 86 87 82 84 87 94 97 96 95 94 95 99 98 100 97 99 98 97 98 98 97 99 98 98 99 99
94 96 93 84 84 88 93 94 96 96 94 94 95 97 98 98 95 93 92 90 90 93 96 94 94 98 97 97 98 100 100 100 100
92 91 94 91 90 91 94 94 97 96 94 92 90 93 97 92 92 86 90 87 86 90 90 96 98 95 91 89 96 100 95 92 91

GFSFLT1_sfc_rhum_015.txt.gz
RH
27 30 31 34 36 39 43 46 58 64 70 73 80 83 80 78 76 77 76 83 80 83 90 88 89 89 90 95 85 88 91 93 92
27 28 30 31 33 35 39 44 51 63 67 65 73 80 79 80 79 77 79 88 81 81 85 84 90 89 92 92 87 86 91 92 94
27 30 28 29 31 32 36 39 44 56 62 63 63 71 73 75 79 78 78 85 86 83 85 86 90 90 90 90 87 87 90 92 92
29 30 28 25 28 30 32 36 43 54 61 62 61 64 68 70 76 78 79 82 85 85 86 85 85 87 89 89 86 87 88 91 92
27 27 27 24 24 27 33 38 42 53 58 63 60 64 68 70 72 76 82 80 82 84 85 86 85 86 88 89 85 84 86 88 84
28 32 29 26 23 28 34 39 42 52 57 61 60 65 69 72 75 78 80 80 78 87 82 85 82 85 89 90 88 83 82 82 83
32 35 31 30 34 31 36 39 43 53 57 59 59 65 70 74 76 80 77 74 77 78 85 86 82 84 84 89 89 88 88 90 90
31 32 30 27 30 32 37 41 45 53 56 62 59 66 71 74 74 77 81 80 78 78 85 84 82 84 84 87 88 90 92 91 92
19 26 27 28 22 25 32 38 45 49 57 61 62 67 70 71 76 80 84 84 84 83 86 87 88 86 85 91 88 89 91 90 95
19 18 24 26 31 28 33 38 42 48 56 58 67 69 71 73 76 83 86 86 87 88 88 92 94 88 91 94 91 91 92 94 97
19 22 27 36 31 29 33 37 41 43 52 61 68 71 72 75 79 81 85 88 89 90 88 95 96 91 90 93 94 96 95 96 96
20 22 25 33 37 34 35 39 42 46 52 60 69 72 73 75 78 81 85 89 90 88 89 95 97 96 95 94 95 99 97 96 95
24 21 26 33 46 48 46 41 41 47 52 59 69 70 70 72 76 79 84 86 87 90 91 95 97 97 95 95 96 100 100 99 96
52 39 39 37 31 52 47 48 49 52 52 55 56 62 65 69 74 78 80 89 92 94 95 95 96 97 97 96 97 99 99 98 97
98 97 95 96 94 87 76 56 58 51 54 51 52 56 61 71 72 78 84 93 95 96 95 91 96 98 99 99 98 98 97 99 92
94 91 82 78 82 91 88 98 90 64 50 50 52 55 59 64 73 82 86 96 95 92 93 95 97 99 99 99 99 99 99 94 94
88 85 79 75 66 68 74 87 87 90 93 64 60 56 59 64 74 81 86 95 89 95 99 99 99 99 99 99 100 99 99 99 99
95 93 89 86 84 84 78 85 84 78 77 81 69 74 84 90 90 94 98 100 99 98 98 99 99 99 99 99 99 95 96 98 98
97 96 96 94 92 87 85 91 96 94 86 79 93 93 97 97 98 99 99 99 99 100 100 100 100 100 100 100 100 100 100 100 100
98 98 99 97 97 96 94 94 89 91 95 88 88 97 98 99 99 98 99 99 98 100 100 100 100 100 100 100 100 100 100 100 100

GFSFLT1_sfc_rhum_021.txt.gz
RH
32 37 38 40 43 49 54 54 58 59 66 77 77 76 81 81 80 66 66 70 59 59 57 59 66 73 72 75 75 74 76 69 65
26 30 34 38 41 43 50 53 58 61 66 72 73 71 77 80 79 77 69 73 73 61 69 56 66 70 73 74 75 76 78 64 74
20 22 28 32 36 39 43 45 50 55 60 67 69 70 70 71 74 76 73 73 76 72 67 69 66 70 71 73 76 77 80 70 74
18 20 23 25 31 36 39 41 44 49 56 64 67 69 71 72 71 72 74 72 74 75 72 73 72 74 73 73 75 78 80 76 72
18 24 26 26 25 30 35 40 42 44 49 53 59 66 72 72 72 72 71 73 73 75 77 74 76 74 74 74 74 77 79 76 70
21 26 30 30 25 28 34 36 42 40 45 44 48 61 64 68 70 72 74 75 72 75 77 77 70 74 77 74 74 77 78 76 75
19 23 28 32 33 36 35 38 44 46 43 43 46 52 59 69 71 70 70 74 75 74 77 78 77 77 75 73 72 74 73 75 76
21 21 21 27 32 44 48 45 47 48 44 49 48 58 59 66 71 71 73 76 77 76 77 76 76 77 76 74 69 63 74 74 75
19 22 20 22 28 37 43 46 49 48 49 48 54 62 62 66 72 76 77 78 80 80 79 79 79 77 77 77 64 77 88 78 74
20 19 20 22 25 32 40 41 47 47 51 51 60 66 65 67 73 77 79 78 80 81 81 79 81 78 77 78 77 88 91 91 69
20 20 20 24 18 25 42 34 30 43 46 60 65 67 68 69 73 76 78 79 81 82 78 81 80 80 80 79 75 91 93 92 77
21 20 21 22 19 22 40 42 42 49 50 58 63 66 70 70 72 75 76 80 81 78 78 79 79 77 81 83 79 94 94 93 76
16 17 19 23 25 30 36 41 36 48 48 56 63 64 66 68 72 74 76 78 81 79 78 76 69 76 78 83 79 97 97 91 65
46 46 31 28 38 43 48 50 42 54 52 58 55 57 62 70 73 77 77 81 80 80 80 78 80 79 80 81 82 80 99 99 74
64 63 57 50 58 63 62 56 55 58 64 58 61 64 67 74 77 69 67 82 82 82 83 86 86 85 82 77 78 96 98 99 90
64 61 64 64 65 70 69 66 62 69 75 66 65 69 74 75 76 76 76 81 82 79 84 81 85 87 87 93 94 93 100 99 98
56 54 54 50 53 60 70 69 69 71 70 76 70 70 74 74 76 79 77 68 68 72 74 83 75 87 92 95 98 100 99 98 98
65 65 63 64 68 70 75 73 74 69 71 69 63 70 72 71 65 74 73 73 66 69 71 69 71 73 86 96 100 99 100 99 99
89 89 85 85 83 84 85 76 79 79 81 77 73 69 58 54 54 55 61 64 90 100 96 100 100 99 98 99 99 100 100 100 100
94 87 89 90 90 89 87 82 86 86 86 81 78 77 78 67 80 62 60 74 92 97 100 100 100 100 100 100 100 100 100 100 100

GFSFLT1_sfc_rhum_024.txt.gz
RH
16 23 24 26 31 34 38 38 44 48 57 70 69 68 74 75 75 56 56 59 48 48 42 43 51 58 61 64 62 65 67 61 60
11 20 24 27 27 31 36 40 45 51 58 67 65 61 70 74 73 71 57 64 62 48 57 42 51 55 63 61 62 65 69 58 66
11 15 22 23 25 27 31 34 38 46 52 61 62 60 62 62 65 70 68 65 67 64 55 59 52 59 60 61 63 65 71 61 65
10 13 16 19 21 24 25 29 34 40 46 54 55 57 61 63 60 61 66 64 66 68 62 63 64 63 62 60 62 65 71 69 60
10 11 13 14 15 19 24 28 30 34 38 42 48 52 63 63 63 63 60 67 66 68 69 65 66 64 65 62 60 64 69 70 58
12 14 17 17 15 17 21 24 31 30 32 34 36 49 51 56 58 61 63 67 66 68 70 70 59 64 69 66 62 64 66 68 66
11 15 17 16 17 18 20 25 33 37 31 30 32 36 44 55 60 61 60 66 70 67 70 71 69 67 68 65 62 61 61 65 66
11 12 14 16 20 24 29 29 35 40 36 34 33 42 42 52 61 63 64 68 70 69 70 70 70 69 67 66 57 49 64 64 64
13 13 11 11 13 22 25 29 34 34 40 36 40 46 47 53 63 68 69 71 73 74 72 72 72 70 69 68 51 63 76 69 63
12 13 13 13 13 15 19 19 28 32 38 39 44 52 54 58 65 70 72 70 74 76 76 73 76 73 70 72 68 75 80 83 58
12 11 12 14 10 10 12 14 12 25 31 49 51 58 58 62 68 69 70 73 75 77 73 74 74 74 74 73 68 83 84 83 69
13 13 13 12 10 12 18 17 19 24 33 42 49 56 61 62 63 66 69 74 76 74 73 73 72 72 76 77 73 89 88 87 66
10 11 12 13 13 14 16 22 20 27 31 38 50 53 56 60 64 67 69 72 77 74 73 71 61 67 70 77 74 90 93 86 54
25 21 21 20 21 21 24 27 26 31 35 39 43 47 48 57 63 69 70 74 74 74 73 67 73 70 70 73 75 74 96 95 66
35 28 26 31 28 28 33 39 40 41 52 44 48 50 52 60 66 58 54 76 75 75 74 78 76 77 69 60 71 88 98 97 87
37 37 38 36 32 43 48 50 48 52 54 52 53 56 60 60 63 63 65 73 76 67 76 63 67 59 61 55 52 63 93 99 96
46 45 46 43 47 51 61 61 58 62 62 59 61 64 66 64 65 68 65 55 56 57 54 61 57 54 56 54 55 54 61 80 83
50 51 51 52 53 57 61 62 62 58 60 57 60 62 60 62 56 64 61 64 51 51 56 51 53 54 50 59 57 71 93 98 98
74 74 72 75 76 72 64 64 68 70 70 67 61 54 43 39 37 38 45 48 54 97 95 100 100 99 76 51 80 99 100 100 100
91 82 82 81 84 74 74 84 84 80 70 67 67 62 64 47 59 44 44 45 45 47 70 100 100 100 100 100 99 100 100 100 100

GFSFLT1_sfc_rhum_027.txt.gz
RH
12 13 16 20 25 28 31 33 39 43 56 71 72 70 74 75 73 53 52 56 42 42 37 38 51 64 62 63 64 64 66 58 58
10 13 16 20 23 26 30 32 40 46 55 66 68 65 71 74 74 70 55 62 61 46 54 37 49 56 63 62 63 65 69 56 66
10 10 15 18 20 24 27 28 32 40 48 60 64 62 65 65 68 72 66 63 66 61 54 58 52 56 58 63 64 66 72 61 64
9 9 14 17 20 20 24 26 29 34 42 52 59 60 63 64 64 64 68 64 64 66 62 62 63 64 63 64 65 67 72 70 62
9 9 12 16 17 18 20 25 27 30 35 39 49 55 62 63 62 63 63 68 64 66 68 64 65 65 67 66 64 66 70 70 57
10 11 12 13 15 17 18 20 26 26 31 32 35 48 50 57 60 60 62 66 66 67 69 68 60 66 69 69 65 66 68 70 69
10 12 14 13 12 13 16 21 28 31 27 28 31 35 41 52 58 59 58 62 68 66 69 70 69 66 68 68 66 64 64 67 70
11 13 14 14 14 17 20 24 30 33 28 30 30 38 39 48 57 60 62 66 66 68 68 69 69 70 67 68 63 53 66 64 67
11 12 11 12 13 16 20 22 28 31 36 32 33 41 42 48 57 64 67 69 71 72 71 71 72 70 69 69 55 64 74 68 64
12 11 10 11 11 11 16 18 22 26 35 36 39 44 47 50 58 64 69 69 71 74 75 72 75 72 70 72 69 75 76 79 59
12 12 12 11 8 10 12 9 8 20 22 43 46 49 50 53 57 62 68 72 74 75 72 75 74 73 74 73 68 81 81 79 64
12 12 11 10 9 9 15 12 12 14 22 33 45 50 54 54 56 62 67 73 75 72 73 74 72 71 75 77 74 88 88 84 62
20 13 13 13 10 10 11 15 12 14 17 27 44 48 51 57 59 64 67 71 76 73 72 72 62 68 71 77 75 90 92 84 54
33 32 28 23 23 23 21 20 17 28 25 27 34 40 46 58 61 67 69 73 73 75 74 69 74 71 70 73 75 75 96 93 67
38 35 29 22 25 28 27 25 27 39 43 39 42 46 51 60 65 57 54 75 75 75 76 79 77 77 70 59 70 90 95 96 88
42 35 34 30 30 31 32 41 44 46 54 48 49 55 61 61 64 64 65 71 76 66 74 63 64 59 59 58 52 61 95 98 94
40 38 42 36 39 40 49 55 49 49 55 51 52 58 62 61 62 66 65 53 54 56 52 54 57 52 53 49 49 49 50 70 80
47 46 45 46 48 53 59 61 61 58 59 60 58 60 59 61 54 63 62 63 48 48 55 50 46 48 46 45 46 44 59 59 58
64 70 74 75 67 59 60 64 71 67 63 60 55 59 52 46 41 45 51 48 56 80 89 99 100 100 85 58 83 97 98 100 100
79 77 75 69 63 76 77 78 73 64 64 62 62 58 58 40 49 33 35 37 39 40 68 100 100 100 100 100 99 100 100 100 100

GFSFLT1_sfc_rhum_030.txt.gz
RH
13 15 17 24 32 34 38 38 45 52 69 78 77 74 80 77 80 66 63 70 55 59 56 56 71 72 74 76 77 77 82 79 78
12 13 15 22 28 32 37 37 45 51 65 74 75 73 77 80 78 76 65 71 70 62 68 53 66 71 72 75 75 78 81 74 81
11 13 15 20 25 30 34 33 38 45 56 70 73 73 72 73 75 76 72 68 75 68 66 67 68 73 73 74 76 78 82 78 79
11 13 16 18 24 26 31 32 35 40 47 62 69 71 73 73 73 73 72 70 71 73 69 75 69 76 75 76 75 77 81 80 76
11 13 17 17 20 24 29 32 33 38 42 48 60 68 73 73 73 74 73 72 69 72 75 70 74 73 74 75 74 76 79 79 70
14 16 16 17 19 23 27 30 34 34 39 40 48 62 65 68 70 72 73 75 70 71 73 75 67 72 75 75 74 76 77 78 78
14 19 19 19 20 25 25 31 37 38 36 36 40 50 58 67 69 69 69 72 75 71 73 74 73 72 75 74 73 74 73 76 78
16 18 19 22 21 30 33 36 39 40 35 39 38 46 54 61 67 68 70 72 73 74 73 72 74 74 72 73 70 64 74 74 76
17 18 17 19 22 25 28 36 40 40 40 38 41 49 49 57 65 69 72 73 75 76 76 76 75 76 75 74 64 73 80 75 72
15 13 13 17 20 24 28 28 40 41 42 41 47 51 53 56 64 68 72 72 75 76 78 77 79 77 76 77 74 81 83 82 68
14 13 17 21 12 18 26 16 17 31 38 52 53 59 58 61 64 68 71 74 76 77 76 78 78 78 79 78 74 84 86 83 71
13 17 18 18 13 16 30 23 26 30 33 47 52 54 59 60 64 66 70 74 77 76 76 78 77 77 80 81 79 90 90 87 71
32 30 32 34 30 27 21 30 21 30 32 42 52 52 55 60 61 67 68 72 77 77 77 77 72 76 77 81 80 92 94 89 68
37 37 35 34 36 38 43 43 37 49 42 40 45 50 52 62 66 67 70 75 77 78 79 77 80 78 77 78 79 80 98 96 77
43 42 36 31 37 39 39 41 47 54 57 56 55 59 59 67 70 61 59 77 80 80 81 84 84 84 80 72 77 95 97 98 96
49 43 40 38 41 46 48 50 59 63 70 62 61 64 71 70 73 71 72 78 81 77 82 79 80 77 76 76 71 70 98 100 97
57 50 50 45 49 49 66 68 66 66 67 63 64 69 74 74 76 77 74 67 69 71 72 74 76 72 72 69 67 66 66 77 89
57 63 69 68 64 58 63 66 68 65 67 71 65 67 70 73 67 76 74 73 64 69 69 66 63 67 66 66 66 83 98 96 86
67 66 67 73 70 62 72 76 75 70 68 69 72 72 64 60 58 61 64 67 70 86 94 100 100 100 97 82 94 100 100 100 100
73 73 70 72 74 80 77 73 67 65 65 67 72 71 71 55 62 56 66 65 68 71 92 100 99 100 100 100 99 100 100 100 100

GFSFLT1_sfc_rhum_033.txt.gz
RH
34 45 42 35 36 37 39 44 55 67 73 75 78 78 73 68 92 75 66 88 70 84 69 74 73 80 83 85 88 91 90 92 93
28 33 31 33 34 36 38 43 52 61 74 72 75 77 77 72 74 90 66 62 86 66 78 63 74 73 87 82 82 87 94 86 91
19 29 31 32 34 36 37 38 47 53 71 74 74 74 76 76 71 74 77 69 68 83 65 73 70 75 76 82 84 83 87 94 94
13 20 29 34 35 35 37 36 45 52 62 74 76 76 73 75 75 70 78 76 70 79 80 78 83 80 76 79 79 88 86 89 92
17 17 27 33 34 35 38 37 42 48 55 70 73 73 74 75 76 77 71 77 81 62 86 76 87 84 81 82 79 80 88 88 79
19 24 26 29 33 35 38 37 39 43 48 61 67 72 75 75 75 77 78 72 70 89 66 81 69 89 82 81 80 83 80 84 85
20 28 25 28 30 34 36 37 37 41 43 47 61 66 72 76 76 75 75 75 73 68 78 71 82 71 81 80 78 77 79 80 82
25 28 28 26 29 33 36 38 38 39 41 44 46 63 68 72 72 72 73 75 77 77 68 72 72 79 73 79 75 73 78 77 80
23 30 33 30 29 32 34 36 39 39 41 42 44 53 63 65 71 72 74 75 76 78 80 71 75 77 71 76 73 80 86 78 77
21 20 20 26 30 38 46 41 39 42 41 41 44 48 55 62 67 73 74 74 76 76 77 77 75 72 79 73 74 86 88 88 72
21 23 27 28 24 23 31 44 41 39 42 46 47 49 54 56 67 72 73 74 75 74 73 75 77 78 74 78 74 89 90 89 74
53 51 51 51 47 48 42 35 39 48 52 52 58 51 56 58 66 68 71 74 74 72 72 73 74 76 78 79 77 94 93 91 78
53 55 51 48 46 46 52 51 47 50 53 48 50 56 66 69 61 66 69 70 70 70 71 72 74 74 76 82 78 94 96 94 76
60 60 56 48 50 48 52 52 49 50 55 67 59 63 71 77 74 72 72 71 69 72 73 74 77 79 76 78 81 82 100 97 84
66 69 58 56 62 64 50 49 47 58 65 63 59 67 73 80 83 70 80 87 81 78 80 82 84 85 84 81 83 98 100 100 98
65 72 78 73 70 69 88 88 84 79 85 82 72 78 82 85 86 88 83 87 96 87 86 84 92 93 95 96 92 90 100 100 99
72 70 71 74 80 83 90 86 84 89 87 86 87 76 90 91 94 95 91 96 88 89 96 96 96 98 98 97 95 93 97 97 99
75 73 75 77 80 84 93 93 92 89 85 86 87 84 91 93 94 94 95 91 96 92 92 93 92 93 92 94 98 89 98 97 95
89 88 84 83 84 90 93 88 86 84 86 84 88 94 88 90 89 96 92 90 96 100 98 89 90 99 91 81 91 100 100 100 100
85 88 87 89 92 93 90 89 90 84 84 88 88 89 88 87 82 87 92 94 91 88 97 99 94 94 95 95 100 100 100 100 100

GFSFLT1_sfc_rhum_036.txt.gz
RH
42 42 41 38 39 38 40 54 57 58 66 71 76 74 74 74 74 72 69 80 78 74 80 77 76 85 87 87 91 93 94 95 96
42 42 43 37 38 38 40 52 58 60 63 63 74 71 73 79 82 73 73 75 82 80 84 77 79 79 85 85 87 90 95 93 95
41 44 37 34 37 38 38 46 53 60 62 62 70 71 68 70 77 84 73 72 84 91 81 78 77 80 83 86 84 87 95 95 94
38 39 36 35 36 37 37 40 50 62 66 65 71 73 73 71 70 70 87 77 72 72 85 79 77 80 82 85 86 84 89 93 96
35 34 35 34 35 36 38 39 47 58 68 68 69 73 75 76 75 73 74 87 78 73 75 86 77 88 82 83 84 84 85 89 85
28 31 32 33 34 36 38 38 45 54 64 69 68 71 73 76 78 80 76 75 81 79 74 78 90 89 86 84 82 84 86 84 85
23 26 33 33 36 36 38 38 42 51 54 67 68 72 75 76 79 80 78 75 72 80 84 74 82 90 89 86 84 80 80 83 87
27 31 32 33 37 38 40 41 40 48 51 60 67 74 76 78 76 77 80 83 77 75 76 86 72 75 84 87 83 79 82 80 82
31 33 33 35 36 37 41 41 41 46 49 55 64 72 75 74 79 79 80 82 85 80 79 75 81 81 82 84 79 84 88 81 80
35 36 34 36 36 36 39 40 39 44 46 48 60 69 70 74 76 82 82 80 83 85 86 82 76 74 80 78 78 89 90 90 76
41 40 38 37 42 43 48 42 39 40 44 48 52 59 69 71 77 79 80 82 81 82 80 86 86 79 75 81 76 90 92 91 80
64 57 57 54 51 46 46 43 42 42 45 47 51 54 56 67 71 77 79 81 82 78 80 79 80 81 82 78 77 94 94 94 85
80 66 58 53 48 53 52 57 59 44 45 48 50 50 54 57 67 71 76 77 77 77 75 77 76 76 78 85 82 94 96 95 79
81 79 75 71 73 73 58 53 58 66 61 51 48 51 51 60 59 67 68 71 73 73 77 75 77 79 77 80 86 85 99 98 87
75 80 83 84 90 90 90 85 71 86 83 78 68 75 80 75 68 62 65 71 73 74 74 80 81 82 85 82 84 99 100 100 99
72 76 79 80 89 92 89 89 90 93 95 95 85 82 82 80 83 84 87 85 83 81 81 79 84 88 94 96 98 96 100 100 100
77 78 83 85 86 96 97 96 91 94 92 91 92 92 88 92 95 96 94 86 88 84 91 93 95 98 98 98 98 98 100 100 99
87 86 88 91 96 97 96 94 90 88 90 91 93 93 95 95 97 96 98 99 99 97 95 93 95 97 97 98 99 94 98 98 94
95 94 95 96 97 96 95 94 93 92 90 94 94 95 97 97 98 98 98 99 94 92 95 100 100 98 87 86 97 99 100 100 100
94 94 89 95 96 96 94 93 93 93 92 93 93 95 84 96 98 98 99 95 84 78 86 96 98 98 96 94 99 100 100 100 100

GFSFLT1_sfc_rhum_042.txt.gz
RH
52 55 55 56 54 55 57 59 60 65 72 74 75 76 81 79 78 77 76 84 86 84 86 87 88 89 90 90 90 90 92 88 86
51 51 52 53 51 52 54 57 60 66 70 71 73 72 76 79 78 79 80 86 85 85 88 81 86 87 89 90 89 90 93 89 90
47 47 48 47 49 48 50 50 54 61 64 69 70 72 72 72 76 79 80 84 86 88 87 85 87 88 88 90 91 90 93 92 90
42 44 43 42 43 44 47 48 52 58 62 68 68 71 74 74 75 77 78 81 84 85 86 86 87 88 88 89 91 92 93 93 91
43 42 39 38 37 43 45 49 52 58 60 64 66 71 74 74 77 78 78 82 85 86 86 85 86 88 88 89 89 90 92 90 86
39 43 41 38 37 40 43 46 52 56 59 61 62 70 70 73 75 79 81 81 85 87 87 86 83 85 88 89 89 91 91 89 89
32 50 47 42 41 44 43 46 56 60 59 58 60 66 70 74 75 78 80 82 85 86 86 87 86 85 86 87 87 89 89 89 89
26 36 47 49 44 47 49 51 54 62 60 61 60 67 71 73 76 79 82 85 88 89 85 82 84 85 84 85 82 78 89 89 89
55 35 28 43 46 45 47 49 52 60 65 64 64 69 72 75 79 82 84 85 86 90 91 87 86 85 85 86 75 82 89 86 86
94 62 30 26 44 43 43 45 48 58 65 66 70 72 74 78 83 86 86 86 87 88 88 90 90 87 85 87 86 90 91 92 79
89 92 48 33 39 41 41 40 42 52 62 74 76 78 79 81 85 87 88 90 90 90 87 88 91 90 89 86 83 91 93 93 86
83 94 76 49 42 42 45 44 50 58 66 75 78 80 82 82 83 86 88 91 91 90 90 89 87 86 90 91 88 94 93 94 86
85 87 93 61 58 56 54 55 49 61 64 73 79 78 79 81 83 85 87 87 89 88 88 89 85 86 86 88 87 96 96 95 81
86 89 95 83 70 64 65 59 54 64 66 68 70 73 78 82 83 85 86 88 87 87 88 88 90 90 88 89 90 87 96 98 86
88 92 92 90 95 95 87 69 60 68 72 75 76 76 79 83 84 79 79 89 89 89 90 92 92 93 90 87 89 99 99 98 98
81 87 91 91 89 91 92 92 82 87 94 92 81 78 80 82 85 84 83 88 90 88 91 89 90 89 89 90 91 90 100 100 99
80 79 89 91 94 94 95 94 92 94 92 92 89 89 88 86 82 85 83 81 80 83 86 88 87 95 97 96 98 97 94 98 98
77 77 84 93 96 97 96 94 95 93 92 90 91 94 95 94 93 93 96 96 96 90 91 88 86 90 92 97 97 92 98 99 99
76 79 85 93 97 98 96 94 96 95 94 91 90 90 89 97 97 98 96 93 94 99 99 100 100 100 98 92 100 100 100 100 100
79 77 80 88 97 97 96 95 94 95 92 90 91 92 89 88 98 97 97 95 92 94 98 99 99 99 98 98 100 100 100 100 100

GFSFLT1_sfc_rhum_045.txt.gz
RH
44 47 45 47 48 50 55 56 58 60 68 74 74 73 77 78 77 59 58 66 54 55 51 52 63 70 69 72 73 72 75 68 66
42 46 45 46 46 48 52 54 58 62 68 71 70 66 73 77 76 73 63 70 69 56 66 52 63 66 69 70 71 73 75 65 73
37 40 44 43 44 45 47 48 51 55 61 69 68 66 67 67 71 74 70 71 73 69 63 67 61 68 68 69 71 73 77 68 72
28 36 40 42 43 43 45 44 48 51 56 63 65 65 67 67 66 67 69 68 69 71 67 70 69 71 70 70 70 72 77 76 70
21 32 36 39 40 43 42 45 46 49 50 52 58 62 68 67 68 68 66 70 68 71 73 68 70 69 71 70 69 70 75 72 65
28 33 35 37 36 42 43 44 48 46 50 46 48 58 59 63 64 66 69 71 69 72 73 71 64 68 71 71 69 71 73 73 71
20 32 39 38 38 42 44 48 52 52 49 46 47 50 54 64 66 66 65 71 73 71 74 73 71 71 69 67 67 67 68 70 72
22 22 30 40 40 45 51 52 54 55 51 53 50 59 57 63 68 68 70 74 75 73 73 72 72 72 70 68 63 55 68 69 71
44 42 32 33 41 44 47 49 55 56 57 56 57 65 63 66 72 74 75 77 78 78 76 75 74 72 71 70 57 70 83 75 66
64 63 60 54 35 42 44 44 52 56 59 57 63 68 67 70 74 77 78 76 79 81 80 76 78 74 72 74 72 84 87 90 62
73 67 65 63 51 34 44 38 38 50 53 65 67 70 71 72 76 76 78 79 80 82 77 79 79 76 77 76 72 90 91 91 73
82 79 73 69 58 30 42 43 46 54 57 63 65 69 71 73 74 76 77 80 81 78 76 77 76 74 78 80 78 94 94 92 72
85 82 69 63 48 28 40 46 44 54 58 63 67 66 68 72 74 77 78 80 82 80 77 75 66 71 74 80 78 95 95 92 63
85 87 76 56 41 45 49 49 48 60 61 65 61 61 64 73 75 78 79 82 80 79 78 75 79 75 74 76 78 79 100 98 73
81 88 82 65 57 52 53 53 57 64 69 66 68 70 71 77 78 68 67 83 81 80 81 83 82 82 76 68 75 97 97 99 96
70 84 85 75 68 73 64 58 63 65 76 73 74 76 78 78 77 75 75 81 82 74 80 70 74 68 68 64 64 70 100 100 98
59 70 90 79 76 81 83 79 77 81 75 70 74 78 79 78 78 78 74 69 67 66 66 68 65 65 66 63 64 68 66 80 88
69 70 70 85 88 84 85 81 81 76 77 75 68 70 71 73 68 76 74 70 68 64 70 66 63 62 63 65 68 66 83 81 78
65 70 71 70 80 90 83 82 80 80 80 77 76 74 66 59 56 64 64 75 81 98 96 100 100 100 82 78 91 100 100 100 100
65 62 63 65 67 74 80 77 79 82 83 80 79 79 88 96 92 79 71 69 69 80 96 100 100 100 100 100 99 100 100 100 100

GFSFLT1_sfc_rhum_048.txt.gz
RH
24 27 28 33 36 37 41 43 45 47 56 68 67 64 71 71 69 48 47 55 43 41 37 37 46 58 58 60 59 60 63 64 57
20 26 29 33 35 37 39 43 47 52 57 64 61 57 66 71 68 65 52 59 55 43 52 38 46 50 58 56 58 61 64 52 61
19 24 29 30 33 35 36 37 40 45 50 59 58 54 56 57 59 64 61 57 61 58 48 54 48 54 53 54 58 60 66 55 60
15 22 27 29 30 32 34 34 38 42 46 53 55 53 56 56 54 54 59 56 58 60 57 56 60 57 55 56 58 60 66 64 56
14 18 23 26 27 30 32 35 36 38 41 43 48 52 59 57 56 56 52 60 57 60 63 59 60 59 59 56 54 58 64 63 53
16 17 20 24 24 28 31 33 36 34 36 36 38 47 48 50 52 53 55 59 58 60 63 63 55 57 61 59 55 58 60 62 60
13 14 20 21 24 26 31 34 41 40 35 32 34 39 42 52 53 53 52 59 63 58 64 64 62 59 59 59 55 53 55 58 60
16 17 19 24 25 29 38 41 43 44 37 38 35 43 42 49 57 57 58 62 64 62 64 63 62 61 59 58 52 42 55 54 55
19 23 20 18 24 27 32 38 44 46 46 41 42 49 47 52 63 65 65 67 69 69 67 66 65 61 60 60 46 60 74 62 51
28 31 32 33 28 25 28 32 40 44 49 44 49 54 56 58 66 69 70 68 72 72 72 67 69 64 61 65 63 75 80 81 50
50 48 46 43 35 34 28 24 26 38 41 54 56 59 62 62 67 69 71 72 73 75 69 70 69 67 68 68 62 82 85 86 61
63 60 59 55 46 41 40 30 29 37 40 49 55 60 64 64 65 68 69 72 74 70 68 68 67 65 70 72 70 88 90 88 61
63 64 62 62 54 46 42 43 27 31 41 48 57 58 61 64 66 69 70 72 75 72 68 65 55 60 64 71 68 90 94 88 54
68 75 75 60 54 51 46 41 29 40 45 48 52 52 54 62 66 71 70 75 73 73 70 64 70 64 64 67 69 70 96 99 66
74 84 78 49 41 38 34 33 38 50 57 55 58 57 58 66 69 57 56 76 74 73 72 76 74 73 64 54 63 90 96 98 94
63 68 85 68 46 42 41 44 43 54 63 66 61 61 66 67 67 65 64 73 75 65 72 59 63 57 55 49 47 56 95 100 98
68 71 70 89 82 79 65 53 51 54 58 66 64 66 68 66 67 68 62 58 58 56 54 56 49 50 49 45 45 46 48 66 75
76 81 75 76 93 90 88 83 80 75 65 64 64 65 63 64 59 66 63 59 60 51 53 53 47 44 44 45 46 46 62 64 55
75 82 84 84 81 86 83 79 78 75 72 72 64 64 57 50 48 54 56 64 62 98 96 99 100 100 74 57 87 100 100 100 100
74 72 79 79 84 84 86 83 81 80 74 70 74 91 71 49 51 56 70 90 87 77 81 100 100 100 100 100 99 100 100 100 100